Location: Alladorf
(49.9620°N, 11.3790°E)
Time: 21:32:10
(UTC+00:00)

PSLV R/B - Pass Details

Date: 29 November 2020
Orbit: 503 x 578 km, 97.8° (Epoch: 24 January)

Event Time Altitude Azimuth Distance (km) Brightness Sun altitude
Rises 05:30:39 0° 10° (N) 2,724 7.3 -12.1°
Reaches altitude 10° 05:32:50 10° 7° (N) 1,813 6.3 -11.7°
Maximum altitude 05:36:40 58° 288° (WNW) 628 3.8 -11.2°
Drops below altitude 10° 05:40:23 10° 209° (SSW) 1,756 6.3 -10.6°
Sets 05:42:28 0° 206° (SSW) 2,628 7.2 -10.3°
